Location: Greenhawk Observatory
(37.3417°N, 122.0298°W)
Time: 12:08:25
(UTC-07:00)

Daily predictions for brighter satellites

Satellite Brightness Start Highest point End
(mag) Time Altitude Azimuth Time Altitude Azimuth Time Altitude Azimuth
Helios 1A 4.3 20:14:35 10° ESE 20:17:53 23° ENE 20:21:13 10° NNE
Molniya-1 2.6 20:17:55 10° SSW 20:19:26 38° ESE 20:21:13 10° NE
Meteor 1-27 4.5 20:18:22 10° SSW 20:23:59 76° W 20:29:34 10° N
Cosmos 1869 4.1 20:20:53 10° SSE 20:24:20 30° E 20:27:49 10° NNE
DELTA 2 R/B (1) 3.7 20:19:05 10° WNW 20:24:41 72° SSW 20:30:16 10° ESE
GRACE-1 4.4 20:25:02 10° NNE 20:27:37 37° E 20:30:11 10° SSE
GRACE-2 4.4 20:25:25 10° NNE 20:28:01 37° E 20:30:35 10° SSE
Cosmos 1697 Rocket 4.0 20:22:54 10° SW 20:28:19 46° WNW 20:33:45 10° N
SJ-6B 4.0 20:25:30 10° S 20:29:14 45° W 20:33:06 10° NNW
OAO 3 Rocket 3.4 20:24:33 10° WSW 20:29:21 58° S 20:34:13 10° E
Resurs 01 Rocket 1.6 20:25:40 10° SSE 20:30:06 77° ENE 20:34:34 10° N
Cosmos 1892 2.6 20:26:56 10° N 20:30:44 87° E 20:34:32 10° S
Spot 2 Rocket 3.5 20:25:40 10° SSE 20:30:44 71° ENE 20:35:49 10° N
BREEZE-M DEB (TANK) 3.7 20:27:03 10° SW 20:30:52 59° SE 20:37:53 10° ENE
Cosmos 1900 4.4 20:25:58 10° NNW 20:31:04 75° ENE 20:36:12 10° SSE
Cosmos 1400 Rocket 3.0 20:30:16 10° NNW 20:34:09 75° W 20:38:05 10° S
Meteor 1-29 4.0 20:33:33 10° NE 20:36:28 25° E 20:39:22 10° SSE
FENGYUN 3A 4.4 20:31:37 10° S 20:36:51 56° W 20:42:08 10° NNW
H-2A R/B 3.2 20:34:58 10° S 20:38:51 66° W 20:42:42 10° NNW
Cosmos 2297 Rocket 4.2 20:34:36 10° NW 20:39:20 28° WSW 20:44:02 10° SSW
CZ-3B DEB 2.4 20:41:11 10° WNW 20:45:02 31° WSW 20:47:18 10° S
Cosmos 2263 Rocket 3.5 20:42:27 10° N 20:46:49 23° ENE 20:50:09 14° E
Cosmos 1315 Rocket 2.8 20:43:51 10° N 20:47:56 80° E 20:51:57 10° SSE
OTV 4 2.5 20:47:29 10° WSW 20:49:32 18° SSW 20:51:16 12° SSE
Cosmos 2322 Rocket 2.3 20:44:42 10° S 20:50:07 53° ESE 20:55:35 10° NNE
Envisat 3.4 20:45:59 11° SE 20:50:42 46° ENE 20:55:33 10° N
Cosmos 1302 Rocket 4.4 20:46:16 10° SSW 20:51:25 66° WNW 20:56:36 10° NNE
Cosmos 2142 Rocket 4.4 20:46:08 10° S 20:52:12 67° E 20:58:17 10° NNE
CZ-2D R/B 4.0 20:55:42 10° S 20:59:31 55° W 21:03:21 10° NNW
Cosmos 1825 2.6 20:56:24 10° N 21:00:03 43° E 21:02:11 21° SE
Cosmos 2360 Rocket 3.2 20:57:15 14° SE 21:00:41 24° E 21:05:05 10° NE
Cosmos 1980 Rocket 3.6 20:56:02 10° SW 21:01:22 42° WNW 21:06:46 10° N
GENESIS II 4.4 20:58:31 10° S 21:02:25 48° ESE 21:06:20 10° NE
SEDSat Delta rocket 4.2 21:02:39 10° SW 21:07:35 39° SSE 21:10:43 23° ESE
USA 186 2.4 21:05:34 11° S 21:07:58 44° W 21:10:41 10° NNW
Cosmos 2026 Rocket 3.9 21:07:03 10° N 21:13:18 75° E 21:18:58 12° SSE
Cosmos 1862 3.7 21:10:44 10° N 21:14:36 45° E 21:16:02 31° SE
USA 234 3.4 21:10:15 21° ESE 21:14:48 67° NE 21:21:18 10° NW
SL-16 R/B 2.2 21:12:12 10° SSW 21:17:52 89° WNW 21:23:33 10° NNE
Helios 1B rocket 2.8 21:13:51 10° N 21:17:56 67° WNW 21:21:59 10° SSW
ERBS 2.2 21:14:55 10° NW 21:18:22 80° NE 21:19:24 43° SE
SAR-Lupe-4 3.8 21:16:41 18° S 21:19:14 67° WSW 21:22:49 10° NNW
Lacrosse 4 Rocket 1.6 21:15:27 10° NNW 21:19:44 61° ENE 21:21:30 33° SE
Cosmos 1939 Rocket 2.8 21:20:15 25° SSE 21:22:32 82° ENE 21:26:34 10° N
ERS-1 Rocket 3.3 21:22:09 30° SE 21:24:11 45° ENE 21:28:58 10° N
Cosmos 1733 Rocket 3.0 21:22:03 10° N 21:26:30 69° E 21:28:30 32° SSE
ATLAS 5 CENTAUR R/B 3.4 21:21:14 10° NNW 21:26:34 32° NE 21:29:19 23° E
Cosmos 1862 Rocket 3.5 21:27:08 16° S 21:30:43 82° E 21:35:13 10° N
Cosmos 1408 3.1 21:31:00 10° NNW 21:34:38 56° W 21:36:27 26° SSW
ARGOS 4.0 21:34:29 29° E 21:35:32 31° ENE 21:40:12 10° N
SeaSat 1 3.5 21:36:49 26° ENE 21:37:52 29° NE 21:42:04 10° N
Cosmos 1655 Rocket 4.1 21:34:26 10° N 21:40:51 83° W 21:45:34 19° S
Meteor 1-26 Rocket 4.3 21:40:50 36° SSE 21:42:52 53° E 21:48:28 10° NNE
Cosmos 1992 Rocket 4.2 21:38:40 10° SSW 21:43:52 70° WNW 21:49:07 10° NNE
Terra 4.0 21:48:57 12° NE 21:48:57 12° NE 21:50:16 10° NE
Cosmos 397 4.2 21:45:35 10° NNW 21:49:46 90° ENE 21:50:14 70° SSE
Cosmos 1844 Rocket 4.4 21:46:26 10° NNE 21:50:00 17° NE 21:50:44 17° ENE
Cosmos 1703 Rocket 4.0 21:51:18 45° ENE 21:51:18 45° ENE 21:55:01 10° NNE
YAOGAN 11 4.3 21:51:30 51° ENE 21:51:33 51° ENE 21:55:47 10° N
Atlas Centaur 2 3.2 21:48:01 10° WSW 21:54:56 45° SSE 21:56:51 39° SE
USA 229 DEB 3.7 21:50:13 10° SSW 21:56:50 57° ESE 22:03:33 10° NE
USA 229 3.7 21:50:18 10° SSW 21:56:55 56° ESE 22:03:38 10° NE
Cosmos 2266 Rocket 4.0 21:55:10 10° N 22:01:23 61° E 22:02:49 49° SE
BREEZE-M DEB (TANK) 4.4 21:42:35 10° NW 22:03:39 84° SW 22:05:44 47° SE
YAOGAN 6 3.5 22:05:50 44° WSW 22:05:58 44° W 22:09:28 10° NNW
Cosmos 2219 Rocket 4.4 22:10:17 11° NE 22:10:17 11° NE 22:10:30 10° NE
Nimbus 7 Rocket 4.4 22:01:35 10° NNE 22:07:27 58° ESE 22:08:01 56° SE
MetOp-A 4.0 22:09:59 62° SSE 22:10:57 90° WSW 22:16:20 10° NNW
OAO 3 Rocket 3.4 22:07:53 10° W 22:12:17 61° SW 22:12:17 61° SW
Cosmos 1867 3.7 22:07:48 10° NNW 22:13:10 55° NE 22:13:26 54° ENE
H-2A R/B 2.7 22:14:05 39° NE 22:14:05 39° NE 22:18:08 10° N
MOS 1-B Rocket 3.9 22:13:24 58° ESE 22:14:16 66° ENE 22:19:54 10° N
Meteor 1-14 Rocket 4.1 22:14:47 10° N 22:20:28 81° E 22:20:56 74° SE
SPOT 5 2.8 22:22:39 83° NNW 22:22:39 83° NNW 22:27:12 10° NNW
Cosmos 489 Rocket 4.4 22:16:51 10° NNW 22:23:14 83° WSW 22:24:26 61° S
Cosmos 2237 4.1 22:23:56 73° E 22:23:56 73° E 22:29:24 10° NNE
Cosmos 968 Rocket 3.4 22:21:46 10° NNW 22:26:54 84° WNW 22:26:54 84° WNW
Milstar 3 3.7 22:21:01 10° WSW 22:26:44 31° SSW 22:26:44 31° SSW
Cosmos 2263 Rocket 2.8 22:25:39 10° NW 22:30:57 46° WSW 22:31:52 42° SW
Sich 1 Rocket 4.3 22:27:23 10° NNW 22:31:32 49° W 22:31:32 49° W
COSMOS 2428 3.2 22:34:03 46° NE 22:34:03 46° NE 22:38:08 10° NNE
Meteor 1-25 Rocket 4.2 22:30:13 10° N 22:35:25 74° NNE 22:35:25 74° NNE
H-2A R/B 3.8 22:38:13 25° NNE 22:38:13 25° NNE 22:40:17 10° N
Nadezhda 2 Rocket 4.4 22:33:16 10° N 22:39:44 76° E 22:39:48 76° E
Cosmos 2360 Rocket 3.2 22:39:01 10° SW 22:44:21 43° WNW 22:49:45 10° N
Meteor 1-20 Rocket 4.4 22:49:34 10° NNW 22:54:26 67° NW 22:54:26 67° NW
Lacrosse 4 Rocket 4.3 22:56:45 10° W 22:57:53 11° WSW 22:57:53 11° WSW
USA 234 4.3 22:57:35 30° SW 22:58:02 30° SW 23:03:41 10° WNW
SPOT 1/Viking Rocket 4.3 23:01:38 50° WNW 23:01:38 50° WNW 23:05:58 10° NNW
ATLAS 5 CENTAUR R/B 3.1 23:05:35 10° NW 23:10:52 47° W 23:10:52 47° W
Cosmos 2333 Rocket 3.8 23:16:06 26° NE 23:16:06 26° NE 23:18:34 10° NNE
SeaSat 1 4.0 23:16:36 29° WNW 23:16:36 29° WNW 23:19:45 10° NW
Cosmos 2237 Rocket 4.1 23:23:19 20° NE 23:23:19 20° NE 23:25:02 10° NNE
Terra 3.6 23:27:49 30° NNW 23:27:49 30° NNW 23:30:16 10° NNW
Cosmos 2278 Rocket 3.5 23:20:16 10° N 23:23:48 32° NNE 23:23:48 32° NNE
Cosmos 1844 Rocket 3.8 23:28:51 10° NNW 23:32:24 39° NW 23:32:24 39° NW
NOSS 3-1 (C) 4.4 23:46:09 41° N 23:46:09 41° N 23:50:28 10° NNE
Atlas Centaur 2 4.4 23:36:37 10° WSW 23:39:31 25° WSW 23:39:31 25° WSW
Cosmos 2219 Rocket 3.6 23:51:56 34° NNW 23:51:56 34° NNW 23:55:23 10° N
H-2A R/B 4.3 23:54:42 17° WNW 23:54:42 17° WNW 23:56:40 10° NW
